Location: Bougoudala
(13.2282°N, 4.9477°W)
Time: 02:34:22
(UTC+00:00)

USA 234 - Pass Details

Date: 29 January 2020
Orbit: 1100 x 1107 km, 123.0° (Epoch: 20 February)

Event Time Altitude Azimuth Distance (km) Brightness Sun altitude
Exits shadow 20:42:00 39° 332° (NNW) 1,576 4.1 -34.4°
Drops below altitude 10° 20:45:53 10° 326° (NNW) 2,949 5.7 -35.3°
Sets 20:48:21 0° 326° (NW) 3,907 6.4 -35.9°
